Hourly Weather Roundup
Issued by NWS Central Illinois

Home | Current Version | Previous Version | Text Only | Print | Product List | Glossary On
Versions: 1 2 3 4 5 6 7 8 9 10 11 12 13 14 15 16 17 18 19 20 21 22 23 24 25 26 27 28 29 30 31 32 33 34 35 36 37 38 39 40 41 42 43 44 45 46 47 48 49 50
000
NZUS43 KILX 210410
HWRILX

AREA WEATHER ROUNDUP
NATIONAL WEATHER SERVICE, LINCOLN IL
1100 PM CDT WED AUG 20 2014


CITY           SKY/WX    TMP DP  RH WIND       PRES   REMARKS
BLOOMINGTON    PTCLDY    71  68  90 S8        29.98S
CHAMPAIGN      PTCLDY    72  69  90 S7        29.98F
DECATUR        PTCLDY    74  69  85 S13       29.98S
FLORA          TSTM      76  73  90 SW13      30.04R
GALESBURG      CLEAR     72  70  94 SE3       29.93S
JACKSONVILLE   CLEAR     77  72  84 S10       29.95R
LACON          MOCLDY    70  68  92 E5        29.95R
LAWRENCEVILLE  PTCLDY    71  69  93 S5        30.02S
LITCHFIELD     MOCLDY    71  69  92 S9        30.00S
$$


CITY           SKY/WX    TMP DP  RH WIND       PRES   REMARKS
LINCOLN        PTCLDY    73  70  90 S7        29.93S
MACOMB         CLEAR     73  73  97 S6        29.94S
MATTOON        CLEAR     73  69  87 S7        29.99S
MT CARMEL AP   PTCLDY    72  70  94 CALM      30.02R
OLNEY-NOBLE AP PTCLDY    73  72  94 SW7       30.03R THUNDER
PARIS          MOCLDY    71  71 100 S5        30.01R
PEORIA         PTCLDY    75  70  84 S6        29.94S
PONTIAC        MOCLDY    72  70  94 CALM      29.98R
RANTOUL        MOCLDY    74  68  83 S3        29.99S
ROBINSON       PTCLDY    71  70  96 S3        30.02S
SPRINGFIELD    CLEAR     76  71  85 S13       29.96R
TAYLORVILLE    CLEAR     72  70  94 S10       29.99S
$$

...REGIONAL REPORTS...


CITY           SKY/WX    TMP DP  RH WIND       PRES   REMARKS
CHICAGO O`HARE MOCLDY    75  67  76 SW7       29.95R
KANKAKEE       CLOUDY    70  68  94 CALM      29.99R
MOLINE         CLEAR     70  67  90 E6        29.92R
MOUNT VERNON   CLOUDY    79  70  73 SE5       30.01S HX  81
PITTSFIELD     CLEAR     76  70  82 S5        29.95R
QUINCY         CLEAR     77  73  87 S7        29.91S
ROCKFORD       CLOUDY    72  67  84 CALM      29.96R
$$


CITY           SKY/WX    TMP DP  RH WIND       PRES   REMARKS
BURLINGTON     LGT RAIN  77  75  93 S8        29.90S
CEDAR RAPIDS   CLEAR     68  68 100 E5        29.90R
DES MOINES     MOCLDY    78  73  84 E5        29.84R HX  81
KIRKSVILLE     CLEAR     78  74  87 S8        29.91S HX  81
OTTUMWA        CLEAR     75  73  93 SE5       29.88R
ST LOUIS       CLOUDY    76  72  87 SE6       29.98F
$$


CITY           SKY/WX    TMP DP  RH WIND       PRES   REMARKS
TERRE HAUTE    CLOUDY    72  68  87 S5        30.01S
EVANSVILLE     PTCLDY    77  71  82 S6        30.03S
INDIANAPOLIS   CLOUDY    73  68  84 S5        30.01S
LAFAYETTE      CLOUDY    70  68  93 CALM      30.00R
MADISON        PTCLDY    72  67  84 CALM      29.93R
MILWAUKEE      MOCLDY    68  64  87 E5        29.95R
$$




USA.gov is the U.S. government's official web portal to all federal, state and local government web resources and services.